GW0029 Weather Reports


Display with metric or nautical units.
time (UTC)temp
F
wind
direction
speed
MPH
gust
MPH
rain 1hr
in
rain 24hr
in
rain mn
in
humidity
%
barometer
mb
20260508214503 46 187 4.0 8.0 0.00 0.00 0.00 64 1024.0
20260508214005 45 181 5.0 8.0 0.00 0.00 0.00 63 1024.0
20260508213503 45 177 5.0 11.0 0.00 0.00 0.00 63 1024.0
20260508213005 45 179 5.0 11.0 0.00 0.00 0.00 61 1024.0
20260508212006 44 176 2.0 7.0 0.00 0.00 0.00 62 1024.0
20260508211503 44 158 1.0 4.0 0.00 0.00 0.00 60 1024.0
20260508211006 44 149 1.0 4.0 0.00 0.00 0.00 59 1024.0
20260508210503 44 113 1.0 4.0 0.00 0.00 0.00 59 1024.0
20260508210006 45 112 1.0 4.0 0.00 0.00 0.00 59 1024.0
20260508205503 45 112 0.0 4.0 0.00 0.00 0.00 59 1023.0
20260508204006 46 0 0.0 0.0 0.00 0.00 0.00 55 1023.0
20260508203503 46 0 0.0 0.0 0.00 0.00 0.00 54 1023.0
20260508203006 47 0 0.0 0.0 0.00 0.00 0.00 53 1023.0
20260508202503 47 0 0.0 0.0 0.00 0.00 0.00 53 1023.0
20260508202005 47 0 0.0 0.0 0.00 0.00 0.00 53 1023.0
20260508201504 48 0 0.0 0.0 0.00 0.00 0.00 51 1023.0
20260508201004 48 0 0.0 0.0 0.00 0.00 0.00 51 1023.0
20260508200503 48 0 0.0 0.0 0.00 0.00 0.00 51 1023.0
20260508200005 48 0 0.0 0.0 0.00 0.00 0.00 51 1023.0
20260508195005 49 0 0.0 0.0 0.00 0.00 0.00 51 1023.0
20260508194503 49 0 0.0 0.0 0.00 0.00 0.00 51 1023.0
20260508194006 49 0 0.0 0.0 0.00 0.00 0.00 51 1023.0
20260508193504 50 0 0.0 0.0 0.00 0.00 0.00 50 1023.0
20260508192504 51 0 0.0 0.0 0.00 0.00 0.00 49 1023.0
20260508191503 51 0 0.0 0.0 0.00 0.00 0.00 49 1023.0
20260508191006 52 0 0.0 0.0 0.00 0.00 0.00 49 1023.0
20260508190504 52 0 0.0 0.0 0.00 0.00 0.00 49 1023.0
20260508190004 53 0 0.0 0.0 0.00 0.00 0.00 49 1023.0
20260508185503 53 0 0.0 0.0 0.00 0.00 0.00 48 1022.0
20260508185006 53 0 0.0 0.0 0.00 0.00 0.00 48 1022.0
20260508184504 54 0 0.0 0.0 0.00 0.00 0.00 47 1022.0
20260508184004 54 0 0.0 0.0 0.00 0.00 0.00 47 1022.0
20260508183504 54 0 0.0 0.0 0.00 0.00 0.00 46 1022.0
20260508183005 55 0 0.0 0.0 0.00 0.00 0.00 46 1022.0
20260508182503 55 0 0.0 0.0 0.00 0.00 0.00 46 1022.0
20260508182004 55 0 0.0 0.0 0.00 0.00 0.00 46 1022.0
20260508181503 55 314 0.0 3.0 0.00 0.00 0.00 45 1022.0
20260508180504 56 267 0.0 2.0 0.00 0.00 0.00 45 1022.0
20260508180006 56 248 0.0 2.0 0.00 0.00 0.00 44 1022.0
20260508175503 57 248 0.0 2.0 0.00 0.00 0.00 44 1022.0
20260508175006 57 248 0.0 2.0 0.00 0.00 0.00 43 1022.0
20260508174503 57 261 1.0 4.0 0.00 0.00 0.00 42 1022.0
20260508173503 58 292 0.0 1.0 0.00 0.00 0.00 41 1022.0
20260508173004 58 248 0.0 4.0 0.00 0.00 0.00 41 1022.0
20260508172504 58 277 1.0 5.0 0.00 0.00 0.00 41 1021.0
20260508172005 58 274 1.0 6.0 0.00 0.00 0.00 41 1021.0
20260508171504 59 243 1.0 6.0 0.00 0.00 0.00 41 1021.0
20260508170503 59 238 1.0 5.0 0.00 0.00 0.00 42 1021.0
20260508165505 60 220 1.0 4.0 0.00 0.00 0.00 40 1021.0
20260508164503 60 282 1.0 7.0 0.00 0.00 0.00 39 1021.0
20260508164005 60 283 1.0 7.0 0.00 0.00 0.00 39 1022.0
20260508163503 60 292 0.0 6.0 0.00 0.00 0.00 38 1022.0
20260508163005 61 268 2.0 7.0 0.00 0.00 0.00 39 1022.0
20260508162503 61 261 2.0 7.0 0.00 0.00 0.00 39 1022.0
20260508162005 61 267 1.0 5.0 0.00 0.00 0.00 39 1022.0
20260508161504 61 280 2.0 5.0 0.00 0.00 0.00 37 1022.0
20260508161006 61 268 2.0 5.0 0.00 0.00 0.00 37 1021.0
20260508160503 61 264 2.0 8.0 0.00 0.00 0.00 38 1021.0
20260508160005 61 259 3.0 8.0 0.00 0.00 0.00 38 1021.0
20260508155505 61 241 2.0 7.0 0.00 0.00 0.00 38 1022.0
20260508155004 61 255 2.0 6.0 0.00 0.00 0.00 39 1022.0
20260508154503 61 264 2.0 6.0 0.00 0.00 0.00 39 1022.0
20260508153503 61 234 1.0 8.0 0.00 0.00 0.00 39 1023.0
20260508153005 61 285 2.0 8.0 0.00 0.00 0.00 40 1023.0
20260508152504 61 291 3.0 8.0 0.00 0.00 0.00 42 1022.0
20260508152006 62 281 3.0 7.0 0.00 0.00 0.00 40 1022.0
20260508151503 61 246 3.0 8.0 0.00 0.00 0.00 40 1022.0
20260508151006 61 239 3.0 8.0 0.00 0.00 0.00 41 1022.0
20260508150503 62 247 3.0 7.0 0.00 0.00 0.00 40 1022.0
20260508145503 62 240 2.0 6.0 0.00 0.00 0.00 40 1022.0
20260508145006 61 246 2.0 6.0 0.00 0.00 0.00 43 1022.0
20260508144503 61 250 2.0 6.0 0.00 0.00 0.00 44 1022.0
20260508144005 61 242 2.0 9.0 0.00 0.00 0.00 42 1022.0
20260508143503 61 243 3.0 9.0 0.00 0.00 0.00 43 1022.0
20260508143004 61 248 3.0 6.0 0.00 0.00 0.00 44 1022.0
20260508142504 61 250 4.0 8.0 0.00 0.00 0.00 44 1021.0
20260508142006 61 249 3.0 8.0 0.00 0.00 0.00 44 1021.0
20260508141503 60 256 3.0 9.0 0.00 0.00 0.00 45 1021.0
20260508141005 60 259 3.0 9.0 0.00 0.00 0.00 45 1022.0
20260508140504 61 250 4.0 8.0 0.00 0.00 0.00 45 1022.0
20260508140006 61 248 4.0 8.0 0.00 0.00 0.00 46 1022.0
20260508135004 60 286 4.0 8.0 0.00 0.00 0.00 44 1021.0
20260508133503 60 274 3.0 7.0 0.00 0.00 0.00 46 1022.0
20260508132503 60 243 3.0 6.0 0.00 0.00 0.00 42 1021.0
20260508132005 61 259 2.0 7.0 0.00 0.00 0.00 42 1021.0
20260508131005 61 249 3.0 8.0 0.00 0.00 0.00 44 1022.0
20260508130504 61 251 3.0 6.0 0.00 0.00 0.00 45 1022.0
20260508130005 61 252 4.0 8.0 0.00 0.00 0.00 43 1022.0
20260508125503 61 239 4.0 9.0 0.00 0.00 0.00 43 1022.0
20260508124504 61 270 3.0 6.0 0.00 0.00 0.00 42 1022.0
20260508124005 61 266 3.0 10.0 0.00 0.00 0.00 43 1022.0
20260508123503 61 255 4.0 10.0 0.00 0.00 0.00 44 1022.0
20260508122503 62 224 4.0 8.0 0.00 0.00 0.00 43 1022.0
20260508122006 62 219 4.0 9.0 0.00 0.00 0.00 43 1022.0
20260508121503 62 230 4.0 9.0 0.00 0.00 0.00 42 1022.0
20260508121006 62 220 5.0 14.0 0.00 0.00 0.00 43 1022.0
20260508120503 62 208 7.0 14.0 0.00 0.00 0.00 43 1022.0
20260508120005 62 206 7.0 14.0 0.00 0.00 0.00 40 1022.0
20260508115005 61 225 5.0 10.0 0.00 0.00 0.00 43 1022.0
20260508114504 61 229 5.0 9.0 0.00 0.00 0.00 43 1022.0
20260508114004 62 235 6.0 9.0 0.00 0.00 0.00 42 1022.0
20260508113005 62 241 6.0 10.0 0.00 0.00 0.00 42 1022.0
20260508112503 62 240 6.0 10.0 0.00 0.00 0.00 42 1022.0
20260508111504 62 227 6.0 9.0 0.00 0.00 0.00 44 1022.0
20260508110504 62 222 6.0 11.0 0.00 0.00 0.00 40 1022.0
20260508110005 62 218 6.0 11.0 0.00 0.00 0.00 41 1022.0
20260508105005 62 228 7.0 12.0 0.00 0.00 0.00 42 1022.0
20260508104503 62 226 6.0 11.0 0.00 0.00 0.00 41 1022.0
20260508104005 62 228 4.0 11.0 0.00 0.00 0.00 40 1022.0
20260508103503 62 239 4.0 8.0 0.00 0.00 0.00 40 1022.0
20260508102503 62 222 6.0 9.0 0.00 0.00 0.00 41 1021.0
20260508102005 62 192 5.0 9.0 0.00 0.00 0.00 41 1021.0
20260508101503 62 202 4.0 8.0 0.00 0.00 0.00 41 1021.0
20260508101005 61 191 5.0 14.0 0.00 0.00 0.00 40 1022.0
20260508100503 61 177 4.0 14.0 0.00 0.00 0.00 41 1022.0
20260508100005 61 207 3.0 10.0 0.00 0.00 0.00 40 1022.0
20260508095504 61 201 6.0 13.0 0.00 0.00 0.00 41 1022.0
20260508095005 61 201 6.0 13.0 0.00 0.00 0.00 41 1022.0
20260508094505 61 199 6.0 13.0 0.00 0.00 0.00 41 1022.0
20260508094005 61 187 6.0 13.0 0.00 0.00 0.00 42 1022.0
20260508093505 61 184 5.0 10.0 0.00 0.00 0.00 43 1022.0
20260508093004 61 182 6.0 9.0 0.00 0.00 0.00 42 1022.0
20260508092504 61 169 6.0 11.0 0.00 0.00 0.00 44 1022.0
20260508092006 61 176 6.0 14.0 0.00 0.00 0.00 44 1022.0
20260508091505 60 157 7.0 14.0 0.00 0.00 0.00 43 1022.0
20260508091005 60 131 7.0 13.0 0.00 0.00 0.00 43 1022.0
20260508090005 60 135 8.0 15.0 0.00 0.00 0.00 44 1022.0
20260508085006 60 119 9.0 15.0 0.00 0.00 0.00 45 1022.0
20260508084505 60 112 10.0 15.0 0.00 0.00 0.00 45 1022.0
20260508084006 60 101 10.0 15.0 0.00 0.00 0.00 45 1022.0
20260508083506 60 108 11.0 18.0 0.00 0.00 0.00 43 1022.0
20260508083006 60 130 10.0 18.0 0.00 0.00 0.00 45 1022.0
20260508082505 60 167 8.0 18.0 0.00 0.00 0.00 46 1022.0
20260508082005 59 169 7.0 18.0 0.00 0.00 0.00 45 1022.0
20260508081504 59 150 6.0 15.0 0.00 0.00 0.00 48 1022.0
20260508081005 59 122 7.0 10.0 0.00 0.00 0.00 48 1022.0
20260508080504 59 96 7.0 10.0 0.00 0.00 0.00 49 1022.0
20260508080007 58 99 6.0 10.0 0.00 0.00 0.00 49 1022.0
20260508075006 58 114 7.0 13.0 0.00 0.00 0.00 48 1021.0
20260508074504 57 111 6.0 10.0 0.00 0.00 0.00 50 1021.0
20260508074006 57 102 6.0 10.0 0.00 0.00 0.00 51 1021.0
20260508073505 57 97 7.0 12.0 0.00 0.00 0.00 52 1021.0
20260508073005 57 96 6.0 12.0 0.00 0.00 0.00 50 1021.0
20260508072504 56 92 4.0 9.0 0.00 0.00 0.00 52 1022.0
20260508072005 56 99 5.0 8.0 0.00 0.00 0.00 53 1022.0
20260508071005 55 101 8.0 10.0 0.00 0.00 0.00 52 1023.0
20260508070505 55 98 7.0 9.0 0.00 0.00 0.00 53 1023.0
20260508070006 54 99 8.0 13.0 0.00 0.00 0.00 54 1023.0
20260508065005 53 106 13.0 19.0 0.00 0.00 0.00 54 1022.0
20260508064504 53 113 13.0 19.0 0.00 0.00 0.00 54 1022.0
20260508063504 51 103 12.0 21.0 0.00 0.00 0.00 56 1022.0
20260508063005 51 99 10.0 15.0 0.00 0.00 0.00 58 1022.0
20260508062006 48 99 12.0 18.0 0.00 0.00 0.00 56 1022.0
20260508061505 48 95 9.0 12.0 0.00 0.00 0.00 57 1022.0
20260508061005 48 95 8.0 11.0 0.00 0.00 0.00 61 1022.0
20260508060505 47 100 8.0 11.0 0.00 0.00 0.00 61 1022.0
20260508060005 46 100 8.0 11.0 0.00 0.00 0.00 63 1022.0
20260508055504 45 96 8.0 11.0 0.00 0.00 0.00 65 1021.0
20260508055004 44 91 7.0 10.0 0.00 0.00 0.00 67 1021.0
20260508054005 42 99 7.0 9.0 0.00 0.00 0.00 68 1021.0
20260508053505 42 97 7.0 9.0 0.00 0.00 0.00 68 1021.0
20260508053005 41 97 7.0 9.0 0.00 0.00 0.00 68 1021.0
20260508052004 41 97 7.0 10.0 0.00 0.00 0.00 68 1021.0
20260508051504 40 98 7.0 8.0 0.00 0.00 0.00 69 1021.0
20260508051005 40 93 6.0 8.0 0.00 0.00 0.00 69 1020.0
20260508045505 39 97 6.0 8.0 0.00 0.00 0.00 68 1020.0
20260508044504 39 95 7.0 9.0 0.00 0.00 0.00 68 1020.0
20260508044005 39 97 6.0 8.0 0.00 0.00 0.00 67 1020.0
20260508043504 39 98 6.0 8.0 0.00 0.00 0.00 67 1020.0
20260508043005 39 100 6.0 8.0 0.00 0.00 0.00 68 1020.0
20260508042005 38 108 5.0 7.0 0.00 0.00 0.00 69 1019.0
20260508041006 38 102 3.0 5.0 0.00 0.00 0.00 69 1020.0
20260508040005 37 104 1.0 4.0 0.00 0.00 0.00 68 1020.0
20260508035504 37 0 0.0 0.0 0.00 0.00 0.00 68 1019.0
20260508035004 37 0 0.0 0.0 0.00 0.00 0.00 68 1019.0
20260508034505 37 0 0.0 0.0 0.00 0.00 0.00 68 1019.0
20260508034005 37 0 0.0 0.0 0.00 0.00 0.00 67 1019.0
20260508033505 37 0 0.0 0.0 0.00 0.00 0.00 66 1019.0
20260508033006 37 0 0.0 0.0 0.00 0.00 0.00 66 1019.0
20260508032006 37 0 0.0 0.0 0.00 0.00 0.00 65 1021.0
20260508031505 37 0 0.0 0.0 0.00 0.00 0.00 65 1021.0
20260508031006 37 146 1.0 5.0 0.00 0.00 0.00 65 1020.0
20260508030504 38 145 1.0 5.0 0.00 0.00 0.00 65 1020.0
20260508025504 38 112 6.0 8.0 0.00 0.00 0.00 65 1020.0
20260508025005 38 109 7.0 10.0 0.00 0.00 0.00 65 1020.0
20260508024505 38 109 8.0 10.0 0.00 0.00 0.00 65 1020.0
20260508024005 38 108 8.0 10.0 0.00 0.00 0.00 66 1020.0
20260508023504 38 102 8.0 10.0 0.00 0.00 0.00 66 1020.0
20260508023004 38 100 7.0 10.0 0.00 0.00 0.00 67 1020.0
20260508022506 38 100 7.0 11.0 0.00 0.00 0.00 67 1019.0
20260508021504 38 100 5.0 7.0 0.00 0.00 0.00 64 1019.0
20260508021005 38 93 5.0 7.0 0.00 0.00 0.00 63 1020.0
20260508020504 38 98 4.0 7.0 0.00 0.00 0.00 64 1020.0
20260508020005 38 105 3.0 6.0 0.00 0.00 0.00 63 1020.0
20260508015504 38 103 4.0 7.0 0.00 0.00 0.00 63 1019.0
20260508015004 38 98 5.0 7.0 0.00 0.00 0.00 63 1019.0
20260508014504 38 96 5.0 6.0 0.00 0.00 0.00 63 1019.0
20260508014005 38 98 5.0 6.0 0.00 0.00 0.00 63 1019.0
20260508013505 38 94 5.0 6.0 0.00 0.00 0.00 63 1019.0
20260508013005 38 90 5.0 6.0 0.00 0.00 0.00 63 1019.0
20260508012505 38 97 5.0 6.0 0.00 0.00 0.00 63 1019.0
20260508012005 38 107 5.0 6.0 0.00 0.00 0.00 63 1019.0
20260508011504 38 101 5.0 6.0 0.00 0.00 0.00 64 1019.0
20260508011005 38 98 5.0 6.0 0.00 0.00 0.00 64 1019.0
20260508010504 38 99 3.0 6.0 0.00 0.00 0.00 64 1019.0
20260508010004 39 91 3.0 6.0 0.00 0.00 0.00 63 1019.0
20260508005505 39 103 4.0 7.0 0.00 0.00 0.00 62 1019.0
20260508005005 39 101 5.0 7.0 0.00 0.00 0.00 62 1019.0
20260508004505 39 94 4.0 5.0 0.00 0.00 0.00 60 1019.0
20260508004005 39 99 2.0 5.0 0.00 0.00 0.00 60 1019.0
20260508003505 39 106 2.0 5.0 0.00 0.00 0.00 59 1019.0
20260508002505 40 110 3.0 5.0 0.00 0.00 0.00 58 1019.0
20260508002005 40 113 1.0 5.0 0.00 0.00 0.00 57 1019.0
20260508001005 41 135 0.0 2.0 0.00 0.00 0.00 56 1019.0
20260508000504 41 135 0.0 2.0 0.00 0.00 0.00 55 1019.0
20260507235505 41 0 0.0 0.0 0.00 0.00 0.00 55 1019.0
20260507235005 42 0 0.0 0.0 0.00 0.00 0.00 55 1019.0
20260507234504 42 0 0.0 0.0 0.00 0.00 0.00 55 1019.0
20260507234005 42 112 0.0 2.0 0.00 0.00 0.00 55 1019.0
20260507233005 42 93 0.0 3.0 0.00 0.00 0.00 55 1019.0
20260507232505 42 90 0.0 4.0 0.00 0.00 0.00 55 1018.0
20260507231004 42 88 0.0 3.0 0.00 0.00 0.00 55 1018.0
20260507230505 42 87 0.0 3.0 0.00 0.00 0.00 55 1018.0
20260507230005 42 87 2.0 4.0 0.00 0.00 0.00 55 1018.0
20260507225504 42 87 1.0 4.0 0.00 0.00 0.00 55 1019.0
20260507225005 43 0 0.0 0.0 0.00 0.00 0.00 55 1019.0
20260507224505 43 88 0.0 5.0 0.00 0.00 0.00 54 1019.0
20260507224005 43 88 0.0 5.0 0.00 0.00 0.00 54 1018.0
20260507223505 43 0 0.0 0.0 0.00 0.00 0.00 54 1018.0
20260507222505 44 314 0.0 1.0 0.00 0.00 0.00 53 1018.0
20260507221504 44 314 0.0 2.0 0.00 0.00 0.00 53 1018.0
20260507221005 44 319 0.0 3.0 0.00 0.00 0.00 53 1018.0
20260507220504 44 329 0.0 4.0 0.00 0.00 0.00 53 1018.0
20260507220004 44 337 0.0 4.0 0.00 0.00 0.00 53 1018.0
20260507215504 44 0 0.0 0.0 0.00 0.00 0.00 54 1018.0